Regional Weather Roundup
Issued by NWS

Home | Current Version | Previous Version | Graphics & Text | Print | Product List | Glossary On
Versions: 1 2 3 4 5 6 7 8 9 10 11 12 13 14 15 16 17 18 19 20 21 22 23 24 25 26 27 28 29 30 31 32 33 34 35 36 37 38 39 40 41 42 43 44 45 46 47 48 49 50
000
ASUS45 KSLC 302310
RWRUT

UTAH REGIONAL WEATHER ROUNDUP
NATIONAL WEATHER SERVICE SALT LAKE CITY UT
500 PM MDT FRI SEP 30 2016

UTZ001>011-023>025-010000-

NORTHERN UTAH

CITY           SKY/WX    TMP DP  RH WIND       PRES   REMARKS
BRIGHAM CITY     N/A     76  42  28 S3        30.11F
HILL AFB       SUNNY     75  44  32 S8        30.13F
LOGAN          SUNNY     75  48  38 CALM      30.11F
OGDEN          SUNNY     76  46  34 CALM      30.11F
PROVO AIRPORT  MOSUNNY   77  45  32 VRB3      30.12F
SALT LAKE CITY MOSUNNY   74  48  39 SW12      30.10S
VERNAL         SUNNY     68  47  46 W5        30.20S
WENDOVER       MOSUNNY  N/A N/A N/A MISG        N/A
HEBER CITY     MOSUNNY   70  43  37 NW5       30.17S
WEST JORDAN    PTSUNNY   72  44  37 W10       30.13F

$$

UTZ012>022-026-027-010000-

SOUTHERN/CENTRAL UTAH

CITY           SKY/WX    TMP DP  RH WIND       PRES   REMARKS
BLANDING       CLOUDY    66  53  64 CALM      30.31F
BRYCE CANYON   PTSUNNY   60  43  53 SE13      30.33S
CEDAR CITY     MOSUNNY   72  43  35 W12       30.19S
DELTA          SUNNY     77  41  27 W3        30.12S
MILFORD        MOSUNNY   79  42  26 W15       30.12F
MOAB/CYNLANDS  SUNNY     73  51  46 CALM      30.15F
PRICE          MOSUNNY   67  49  52 S5        30.24F
ST GEORGE      PTCLDY    84  50  30 CALM      30.06F

$$

REGIONAL REPORTS     COLORADO/ARIZONA

CITY           SKY/WX    TMP DP  RH WIND       PRES   REMARKS
CRAIG, CO      TSTM      60  48  64 W7G16     30.25R
GRAND JUNCTION MOSUNNY   73  52  47 N5        30.18F
RIFLE          SUNNY     70  46  42 NW10      30.22S
MONTROSE       CLOUDY    67  48  50 W7        30.26F
CORTEZ         SUNNY     71  48  43 W12       30.24S
PAGE, AZ       MOSUNNY   75  52  44 MISG      30.15F
GRAND CANYON   SUNNY     69  44  40 VRB5      30.30F
KINGMAN        CLOUDY    77  32  19 SE9       30.10F
FLAGSTAFF      CLOUDY    60  52  74 E6        30.30F

$$

REGIONAL REPORTS    NEVADA/IDAHO/WYOMING

CITY           SKY/WX    TMP DP  RH WIND       PRES   REMARKS
LAS VEGAS, NV  MOSUNNY   90  40  17 VRB6      29.96F
ELY            SUNNY     74  33  22 SW8       30.17F
ELKO           MOSUNNY   81  36  19 SE7       30.04F
POCATELLO, ID  MOSUNNY   77  46  33 S10       30.08F
BURLEY         SUNNY     75  50  41 SE12      30.02F
EVANSTON, WY   CLOUDY    66  40  38 NE5       30.27F
ROCK SPRINGS   PTSUNNY   66  39  37 N6        30.23S

$$



USA.gov is the U.S. government's official web portal to all federal, state and local government web resources and services.